Theta_e
277 276 276 275 275 275 275 275 274 274 274 273 273 273 273 273 272 272 271 272 272 272 272 272 272 271 271 271 271 271 271 271 271 272 271 270 269 270 269 269 269 269 269 268 268 268 267 267 267 266 266 266 266 266 265 265 265 265 264 264 263 262 262 262 261 263 266 266 265 265 265 265 266 266 265 266 266 266 266 267 267 267 266 266 267
276 276 275 275 275 275 275 274 274 274 274 274 274 273 273 272 272 271 272 272 272 272 272 272 272 271 271 271 271 271 271 271 272 272 270 270 270 270 269 269 269 269 269 269 269 268 268 268 267 267 266 266 266 266 265 265 265 265 265 264 264 263 262 262 261 261 264 266 266 266 266 265 266 266 265 265 265 266 266 267 267 267 267 267 266
276 275 275 275 275 274 274 274 274 274 274 274 274 273 272 272 272 272 272 272 272 272 272 272 271 271 272 272 272 271 271 272 272 271 270 270 270 270 269 270 270 270 269 269 269 269 268 268 268 268 267 267 267 266 266 266 265 265 265 264 264 264 263 262 262 261 263 265 266 265 266 266 266 266 266 266 266 266 266 267 267 267 267 267 266
275 275 274 274 274 274 274 274 274 274 274 274 273 273 272 272 272 272 272 272 272 272 272 272 271 272 272 272 272 271 271 272 272 271 270 270 269 269 270 270 270 269 269 269 268 268 268 268 268 268 267 267 267 267 266 266 266 266 266 265 265 265 264 263 263 262 262 264 266 266 266 266 266 266 266 266 267 267 266 266 267 267 268 267 266
275 274 274 274 274 274 274 274 274 274 274 274 273 272 272 272 272 272 272 272 272 272 272 272 272 272 273 273 272 271 271 273 272 271 270 269 269 269 269 270 269 269 269 268 268 268 268 268 267 267 267 267 267 267 266 266 266 266 266 266 265 265 265 264 264 264 263 264 266 266 266 266 267 267 265 265 266 268 268 267 267 266 267 268 267
275 274 274 274 274 274 274 274 274 274 274 273 273 272 272 272 272 272 272 272 272 272 272 272 272 273 273 272 272 271 271 273 272 271 270 269 269 269 269 269 269 269 269 268 268 268 267 267 267 267 267 267 266 265 265 265 265 265 265 265 265 265 265 265 265 264 264 265 265 266 267 266 266 267 266 265 265 265 267 269 269 267 266 267 268
274 274 274 274 274 274 274 274 274 274 274 273 273 272 272 272 272 272 272 272 272 272 272 272 272 273 272 272 272 271 271 272 273 271 270 269 269 269 269 269 269 269 269 268 268 268 268 267 267 267 266 266 265 265 265 265 265 265 265 265 265 265 265 265 265 265 265 265 266 266 266 266 266 266 267 266 266 265 264 266 268 268 267 267 267
274 274 274 274 274 274 274 274 274 274 273 273 272 272 272 272 272 272 272 272 272 272 272 272 272 273 272 272 271 271 271 272 273 272 270 269 269 269 270 270 270 269 269 269 269 268 268 268 267 267 267 266 265 265 265 265 265 265 265 264 264 264 264 264 265 265 265 265 266 266 266 266 266 266 266 266 265 265 264 262 264 266 266 267 267
274 274 274 274 274 275 275 274 274 274 273 273 272 272 272 272 272 272 272 272 272 272 272 272 272 272 272 271 271 271 271 272 272 272 271 270 270 270 270 270 270 270 270 269 269 269 269 269 268 268 268 267 266 266 265 265 265 265 264 264 264 264 264 264 264 265 265 265 265 265 266 266 266 265 265 265 263 262 262 262 262 264 265 267 268
274 274 274 274 275 275 275 274 274 273 273 273 272 272 272 272 272 272 272 272 272 272 272 272 272 272 272 272 271 271 271 271 271 271 271 270 270 270 270 270 270 270 270 270 270 270 269 269 269 269 269 268 268 267 267 266 266 265 265 264 264 264 264 264 264 264 264 265 265 265 265 265 265 265 264 263 261 261 261 261 262 264 264 265 267
274 274 274 274 275 275 274 274 274 273 273 273 272 272 272 272 272 272 272 273 272 272 272 272 272 272 272 272 271 271 271 271 271 271 271 270 270 270 270 271 271 271 271 271 271 270 270 269 269 269 269 269 269 268 268 267 267 266 266 265 264 264 264 264 264 264 264 265 265 265 264 264 265 264 262 261 261 261 262 262 262 262 262 261 263
274 274 274 275 275 274 274 274 273 273 273 272 272 272 272 272 272 272 273 273 272 272 272 272 272 272 272 271 271 271 270 271 271 271 271 271 270 270 271 271 271 271 271 271 271 271 271 270 270 270 270 270 269 269 269 269 268 268 267 266 266 265 265 264 264 265 265 265 265 265 264 264 265 263 261 260 261 261 263 264 263 262 261 260 261
274 274 275 275 274 274 274 274 273 273 273 272 272 272 272 272 272 273 273 273 272 272 272 272 272 272 272 271 271 271 270 271 271 271 271 271 270 270 271 271 271 271 271 271 271 271 271 270 270 270 270 270 270 270 270 270 270 269 268 268 267 267 267 266 266 265 265 265 265 265 264 264 264 263 261 261 261 263 264 265 264 263 262 261 261
274 274 275 275 274 274 274 273 273 273 273 273 273 273 272 272 273 273 273 273 273 272 272 272 272 272 272 271 271 271 271 271 271 271 271 271 271 270 271 271 271 271 271 271 271 271 270 270 270 270 270 270 270 270 270 270 270 270 269 269 268 268 268 267 267 267 266 265 265 265 265 264 263 263 263 263 263 264 265 265 264 264 264 263 262
274 275 275 274 274 274 274 273 273 273 273 273 273 273 272 273 273 273 273 273 273 273 273 272 272 272 272 272 271 271 271 271 271 272 272 272 271 271 271 271 271 271 271 270 270 270 270 270 270 269 269 269 269 269 270 270 270 270 270 269 269 269 268 268 267 267 266 266 265 265 265 265 264 264 265 265 265 265 265 265 264 264 264 264 264
274 275 275 274 274 274 274 274 273 273 273 273 273 273 273 273 273 273 273 273 273 273 273 273 272 272 272 272 272 272 272 272 272 272 272 272 272 272 271 271 271 271 271 271 270 270 270 270 269 269 269 269 269 269 269 269 270 270 270 270 270 269 269 269 268 267 267 267 266 266 266 266 266 266 266 265 265 266 266 265 264 263 263 263 263
275 275 275 274 274 274 274 274 273 273 273 273 273 273 273 273 274 274 273 273 273 273 273 273 273 272 272 272 272 272 272 272 272 273 273 273 273 273 272 272 272 271 271 271 270 270 269 269 269 269 269 269 269 269 269 269 269 270 270 270 270 270 270 270 269 269 268 268 268 268 267 268 268 268 267 267 266 265 265 265 264 263 262 262 261
275 275 274 274 274 274 274 274 274 273 273 273 273 273 273 274 274 274 273 273 273 273 273 273 273 273 272 272 272 272 272 272 273 273 273 274 274 273 273 272 272 272 271 271 270 270 269 269 269 269 269 269 269 269 269 269 269 269 269 270 270 270 270 270 270 270 270 269 269 269 269 269 269 269 268 268 267 266 265 264 263 262 261 260 260
275 275 274 274 274 274 274 274 274 273 273 273 273 273 274 274 274 274 273 273 273 273 273 273 273 273 272 272 272 272 272 273 273 274 274 274 274 273 273 272 272 272 272 271 271 270 270 269 269 269 269 269 269 268 268 269 269 268 268 269 269 269 269 269 270 270 270 270 270 270 270 269 269 269 269 268 268 267 265 264 263 262 261 261 260
275 275 274 274 274 274 274 274 274 273 273 273 273 273 274 274 274 274 274 273 273 273 273 273 273 273 272 272 272 272 272 273 273 274 274 274 273 272 272 272 272 272 271 271 271 271 270 270 269 269 269 269 269 269 269 268 268 268 268 268 269 269 269 269 270 270 270 271 270 270 270 270 270 269 269 269 268 268 266 265 264 262 261 261 261
275 275 275 274 275 274 274 274 274 273 273 273 273 274 274 274 274 274 273 273 273 273 273 273 273 273 272 272 272 272 272 273 273 273 273 273 272 272 271 271 272 272 271 271 271 271 270 270 270 270 269 269 269 269 269 269 268 268 269 269 268 269 269 270 270 270 270 271 270 270 270 270 270 270 269 269 269 268 267 266 265 263 262 261 261
275 275 275 275 275 275 274 274 274 274 274 274 274 274 274 274 274 273 273 273 273 273 273 273 273 273 272 272 272 272 272 272 273 273 273 272 272 272 271 271 271 271 271 271 271 271 270 270 270 270 270 269 269 269 269 269 269 269 269 269 269 269 270 270 270 270 270 270 270 270 270 270 270 270 269 269 269 269 268 267 266 266 264 263 262
275 275 275 275 275 275 274 274 274 274 274 274 274 274 274 273 273 273 273 273 273 273 273 273 273 273 272 272 272 272 272 273 272 272 272 272 272 271 271 271 271 271 271 271 271 271 271 270 270 270 270 270 270 270 270 270 269 269 269 269 269 269 269 270 270 270 270 270 270 270 270 269 270 269 269 269 269 269 268 268 267 267 266 265 264
275 275 275 275 275 275 274 274 274 274 274 274 274 274 274 274 273 273 273 273 273 273 273 273 273 272 272 272 272 272 272 273 273 272 272 272 272 272 271 272 272 271 271 271 271 271 271 271 271 270 270 270 270 270 270 270 270 269 269 269 269 269 269 269 269 269 270 270 270 269 269 269 269 269 269 268 268 269 269 268 268 268 267 267 266
275 275 275 275 275 275 275 274 274 274 274 274 274 274 274 274 273 273 273 273 273 273 273 273 273 273 273 273 273 273 273 273 273 273 273 272 272 272 272 272 272 272 272 271 271 271 271 271 271 271 271 271 271 271 271 270 270 270 269 269 269 269 269 269 269 269 269 269 269 269 269 269 268 268 268 268 268 268 269 269 269 269 268 268 268
275 275 275 275 275 275 275 275 274 274 274 274 274 274 274 273 273 273 273 273 273 273 273 273 273 273 273 273 273 273 273 273 273 273 273 273 273 273 273 273 272 272 272 272 272 271 271 271 271 271 271 271 271 271 271 271 270 270 270 270 269 269 269 269 269 269 269 268 268 268 269 269 268 268 268 268 268 268 268 269 269 269 269 269 269
276 276 275 275 275 275 275 275 274 274 274 274 274 274 273 273 273 273 273 273 273 273 273 274 274 274 274 273 273 273 273 273 274 274 274 274 274 273 273 273 273 273 273 273 272 272 272 271 271 271 271 271 271 271 271 271 271 271 270 270 270 269 269 269 269 268 268 268 268 268 269 269 269 269 269 269 268 268 268 268 268 269 268 268 268
276 276 276 275 275 275 275 275 274 274 274 274 274 274 273 273 273 273 273 273 274 274 274 274 274 274 274 274 274 274 273 274 274 274 274 274 274 274 274 274 274 273 273 273 272 272 272 271 271 271 272 272 272 272 272 272 272 271 271 270 270 270 269 269 269 269 268 268 269 269 269 270 270 270 270 269 269 269 268 268 268 268 268 268 268
276 276 276 276 275 275 275 275 274 274 274 274 274 274 274 273 273 273 273 273 274 274 274 274 274 274 275 274 275 274 274 274 274 274 274 274 274 273 273 273 273 273 272 272 272 272 272 272 271 271 272 272 272 272 272 272 272 272 271 271 270 270 270 269 269 269 269 269 269 269 270 270 270 270 270 270 270 269 269 269 269 269 269 268 268
276 276 276 276 276 275 275 274 274 274 274 274 274 274 274 274 273 273 274 274 274 274 274 274 275 275 274 274 274 274 275 275 274 274 274 274 273 273 273 272 272 272 272 272 272 272 272 272 272 271 271 271 271 271 271 271 271 272 271 271 270 270 270 269 269 269 269 269 269 269 269 269 270 270 269 269 269 269 269 269 269 269 269 269 269
276 277 276 276 276 276 275 274 274 274 274 274 274 274 274 274 273 274 274 274 274 274 274 275 275 275 275 274 274 274 274 274 274 274 274 274 274 273 273 272 272 272 272 272 272 271 271 272 272 271 271 271 271 271 271 271 271 271 271 271 271 270 270 269 269 269 269 269 269 269 269 269 269 269 269 269 269 269 269 269 269 269 269 269 269
276 277 277 276 276 276 275 275 274 274 274 274 274 274 274 274 274 274 274 274 274 274 274 275 275 275 275 275 275 274 274 274 274 274 274 274 274 274 273 273 272 272 271 271 272 271 271 271 271 271 271 271 271 271 271 271 270 270 271 271 271 270 270 269 269 269 269 269 269 269 269 269 269 269 269 269 268 269 269 269 269 270 270 270 269
276 277 277 277 276 276 275 275 274 274 274 274 274 274 274 274 274 274 274 274 274 275 275 275 275 275 275 275 274 274 274 274 274 274 274 274 274 274 273 273 272 272 271 271 272 272 272 271 271 271 271 271 271 271 271 270 270 270 270 270 270 270 270 269 269 269 269 269 269 270 270 270 270 270 269 269 268 268 268 269 269 269 270 270 270
277 277 277 276 276 276 275 275 275 275 275 275 275 274 274 274 274 274 274 275 275 275 275 275 275 275 275 274 274 273 273 273 274 274 274 274 274 274 273 273 272 272 272 271 271 272 272 272 271 271 271 271 271 271 271 271 270 270 270 270 270 270 270 270 270 270 270 270 271 271 271 270 270 270 269 269 268 268 268 268 268 269 269 270 270
277 277 277 276 276 275 275 275 275 275 275 275 275 274 274 274 274 274 274 275 275 274 274 274 274 274 274 274 274 273 273 273 273 273 273 273 273 273 273 273 273 273 272 272 272 272 272 272 272 271 271 271 271 270 270 270 270 270 270 270 270 270 270 270 270 271 271 271 272 272 272 271 271 270 269 269 268 268 268 268 268 268 268 269 269
277 277 277 277 276 276 275 275 275 275 275 275 274 274 274 274 274 274 274 274 274 274 274 274 273 273 273 273 274 274 274 273 273 273 273 273 273 273 273 273 273 273 273 272 272 272 272 272 272 271 271 271 271 270 270 270 270 270 270 270 270 271 271 271 271 272 272 272 272 272 272 272 271 271 270 269 268 268 268 268 268 268 268 268 268
278 278 277 277 277 276 275 275 275 275 275 275 274 274 274 274 274 274 274 274 274 274 274 274 274 274 273 273 273 274 274 274 273 273 273 273 272 272 272 272 273 273 273 272 272 272 272 272 272 271 271 271 271 270 270 270 270 270 270 270 271 271 272 272 272 272 273 273 273 273 273 272 272 271 269 269 269 269 268 268 268 268 268 268 268
278 277 277 277 277 276 275 275 275 275 275 275 275 275 274 274 274 274 274 274 274 274 275 274 274 274 274 274 274 274 274 274 274 274 273 273 273 273 273 273 273 273 273 272 272 272 272 272 272 271 271 271 271 271 271 271 271 271 271 271 271 271 271 272 272 272 273 273 273 273 273 273 272 270 269 269 269 269 269 269 268 268 269 268 269
278 277 277 277 276 276 276 275 275 275 275 275 275 275 275 274 274 274 274 274 274 274 275 275 274 274 274 274 274 274 275 275 275 275 275 274 274 273 273 273 273 273 273 272 272 272 272 272 272 271 271 271 271 271 272 272 272 272 271 271 271 271 271 271 271 271 272 273 273 273 273 272 271 270 269 269 269 269 269 269 268 268 268 268 269
278 278 277 277 276 276 276 276 275 275 275 275 275 275 275 274 274 274 274 274 275 274 275 275 274 274 274 274 274 274 275 275 275 275 275 275 274 274 273 273 273 273 273 272 272 272 272 272 272 272 272 272 272 272 272 272 272 272 271 271 271 271 271 270 270 271 271 272 272 272 271 271 270 270 269 269 269 268 268 268 268 268 268 268 268
278 277 277 277 277 276 276 276 276 276 275 275 275 275 275 275 274 274 274 274 275 275 275 275 274 274 274 273 273 273 274 274 274 274 274 274 274 274 273 273 273 273 272 272 272 272 272 272 272 272 273 273 273 273 272 272 271 271 271 271 271 271 271 271 270 270 271 271 271 271 270 270 270 270 269 269 269 269 268 268 268 268 268 268 268
278 277 277 277 277 277 276 276 276 276 275 275 275 275 275 275 275 274 274 274 274 275 275 275 275 274 274 273 273 273 273 274 274 274 274 274 273 273 273 273 273 272 272 272 272 272 272 272 273 274 274 274 273 272 272 272 271 271 271 271 271 271 271 271 271 271 271 271 270 270 270 270 270 270 269 269 269 269 269 268 268 268 268 268 267
277 277 277 277 277 277 276 276 276 276 276 276 275 275 275 275 275 274 274 274 274 275 275 275 275 275 274 274 273 273 273 273 273 273 274 273 273 273 273 273 273 273 272 272 272 272 272 274 274 275 274 273 272 272 272 271 271 271 271 271 271 271 271 271 271 271 271 271 271 270 270 270 270 270 269 269 269 269 269 269 269 268 268 268 267
277 277 277 277 277 277 276 276 276 276 276 276 276 276 275 275 275 274 274 275 275 275 275 275 275 275 275 275 274 274 274 274 273 273 273 273 273 273 273 273 273 273 273 273 272 273 274 275 275 274 273 272 272 272 271 271 271 271 271 271 271 271 271 271 271 271 271 271 271 270 270 270 270 270 269 269 269 269 269 269 269 269 268 268 267
277 277 277 277 277 277 277 276 276 276 276 276 276 276 275 275 275 275 275 275 275 275 275 275 275 275 275 275 275 274 274 274 274 274 273 273 273 273 273 273 273 273 273 273 274 275 275 275 274 273 273 272 272 272 272 271 271 271 270 270 270 271 271 271 271 271 271 271 271 270 270 270 270 270 270 269 269 269 269 269 269 268 268 268 267
277 277 277 277 277 277 277 277 276 276 276 276 276 276 275 275 275 275 275 275 275 275 275 275 275 275 275 275 275 274 274 274 274 274 274 273 273 273 273 273 273 273 274 275 276 275 274 274 273 273 273 272 272 272 271 271 271 271 270 270 270 270 270 270 270 270 270 270 270 270 270 270 270 270 270 269 269 269 269 269 268 268 268 267 267
277 277 277 277 277 277 277 277 277 276 276 276 276 276 276 275 275 275 275 275 274 274 275 275 275 275 275 275 275 274 274 274 274 274 274 274 273 273 273 273 274 275 276 276 275 274 274 273 273 272 272 272 272 272 272 271 271 271 271 271 271 270 270 270 270 270 270 270 270 270 270 270 270 270 270 270 270 270 270 269 269 268 268 267 267
277 277 277 277 277 277 277 277 277 277 277 276 276 276 276 276 275 275 275 275 275 274 274 275 275 275 275 275 275 274 274 274 274 274 274 274 273 273 273 274 275 276 276 275 274 274 273 273 272 272 272 272 272 272 272 272 271 271 271 271 271 270 270 270 270 270 270 270 270 270 270 270 270 270 270 270 270 270 270 269 269 268 268 267 267
277 277 277 277 277 277 277 277 277 277 277 277 277 276 276 276 276 275 275 275 275 274 274 275 275 275 275 275 275 274 274 274 274 274 274 274 273 273 274 275 276 276 275 274 274 273 273 273 272 272 272 272 272 272 272 272 272 271 271 271 271 271 270 270 270 270 270 270 270 270 270 270 270 270 270 270 270 270 270 270 269 269 268 268 267
277 277 277 277 277 277 277 277 277 277 277 277 277 276 276 276 276 276 275 275 275 274 274 275 275 275 275 275 275 275 275 274 274 274 274 274 274 274 276 276 276 275 274 274 274 273 273 273 273 273 273 273 272 272 272 272 272 271 271 271 271 271 270 270 270 270 270 270 270 270 270 270 270 270 269 270 270 270 270 270 269 269 268 268 267
277 277 277 277 277 277 277 277 277 277 277 277 277 277 276 276 276 276 276 275 275 275 275 275 275 275 275 275 275 275 275 274 274 274 274 274 275 276 276 276 275 274 274 274 274 273 273 273 273 273 273 273 273 272 272 272 272 271 271 271 271 270 270 270 270 270 270 270 270 270 270 270 270 270 269 269 270 270 270 270 269 269 268 268 267
Wind_Speed
10 12 13 13 13 13 13 13 14 15 16 15 15 16 16 16 17 17 18 19 21 22 22 23 23 24 25 25 26 26 26 24 24 27 30 31 31 30 30 29 28 28 28 27 27 27 26 26 26 27 27 27 27 27 28 28 29 28 26 27 27 25 25 26 30 39 40 38 38 39 39 39 37 35 37 37 36 35 33 30 30 30 31 31 30
11 12 12 12 12 12 12 13 14 15 14 14 14 15 15 16 17 17 18 20 21 21 21 22 22 23 24 25 25 26 25 24 26 30 32 32 31 30 30 29 29 29 29 28 28 28 28 28 28 28 28 27 28 28 29 30 29 29 28 28 29 28 26 27 30 37 41 40 39 39 38 38 38 36 37 39 38 38 35 33 31 31 32 33 32
12 11 11 12 12 11 12 13 14 14 13 13 13 15 16 16 16 17 18 19 20 20 20 21 21 22 23 24 25 25 24 24 28 32 33 32 31 31 31 31 31 31 30 30 29 29 28 29 29 29 29 29 29 30 30 30 29 29 29 29 30 30 28 28 30 34 40 42 41 41 41 40 39 38 38 39 39 39 37 36 34 33 33 34 34
12 11 11 11 11 11 12 14 13 12 12 12 14 15 15 15 16 17 18 18 18 19 19 19 20 21 23 24 25 25 24 24 29 33 33 32 32 31 31 32 32 31 31 30 30 30 29 29 29 29 29 29 30 30 30 30 29 30 31 31 31 31 31 30 30 32 37 41 41 41 41 41 40 39 39 39 38 37 38 39 38 36 35 35 35
11 11 10 10 10 11 12 13 12 11 12 13 14 15 15 15 15 16 17 17 17 18 18 19 20 21 23 24 25 25 24 25 30 33 33 32 31 31 31 31 31 30 30 30 29 29 29 29 29 29 30 30 30 31 30 29 29 30 32 32 32 32 32 32 33 33 36 40 42 41 40 40 40 39 39 41 41 40 40 41 41 40 39 36 35
11 11 10 9 10 12 13 13 12 11 12 13 14 15 15 14 14 15 16 16 16 17 17 18 20 21 22 24 25 25 24 25 29 32 31 30 29 29 29 30 30 29 29 29 29 29 29 28 28 29 29 30 30 30 30 30 30 31 32 33 33 34 34 34 35 36 36 38 40 41 40 40 40 40 39 40 43 44 44 44 42 42 43 41 37
11 10 10 10 11 12 13 12 12 11 12 14 14 15 14 14 14 14 15 15 15 16 17 18 20 20 21 22 24 25 24 25 28 30 30 29 27 27 28 28 28 28 28 28 28 28 28 28 28 28 28 29 29 29 30 30 30 31 31 32 33 34 35 36 36 37 38 38 39 40 41 40 40 41 40 39 41 43 45 47 47 47 47 45 42
11 10 10 11 12 13 13 12 12 11 12 14 14 14 14 13 13 13 13 13 14 16 17 18 19 19 20 22 23 24 24 25 27 29 28 27 26 26 26 26 26 26 26 27 27 28 28 28 28 28 28 28 28 28 29 30 30 30 30 31 33 34 35 36 37 37 38 39 40 41 42 42 42 43 43 43 44 45 45 45 47 50 50 47 44
11 11 11 12 13 13 13 12 11 12 13 14 14 13 13 13 13 12 12 12 14 15 16 17 17 18 19 21 22 23 24 25 27 28 27 26 25 26 26 26 25 25 25 25 26 27 27 28 28 27 27 26 26 26 26 27 29 30 30 31 32 33 34 35 36 37 39 40 41 42 43 44 44 45 45 45 45 45 44 43 45 49 50 48 44
12 12 12 13 13 13 12 12 12 12 13 13 13 13 12 12 12 11 11 12 13 15 15 15 16 17 18 20 21 21 22 24 25 26 26 25 25 25 25 25 25 25 25 25 25 26 26 27 27 26 26 25 25 25 25 25 25 26 27 28 29 31 33 34 35 36 38 40 41 41 43 44 43 42 44 44 42 42 44 45 47 48 48 49 46
12 13 13 13 14 13 12 12 12 12 13 12 12 12 12 11 10 10 10 12 13 14 14 14 14 16 17 18 19 19 20 22 23 24 24 24 24 24 25 25 25 25 26 26 26 26 26 26 27 27 27 27 26 26 25 24 24 24 24 24 25 27 30 33 34 34 36 38 39 39 39 41 41 40 41 43 41 42 44 45 45 45 45 45 46
14 14 14 14 14 14 13 12 12 12 12 12 12 11 11 10 9 9 10 11 13 13 13 13 13 15 16 16 17 18 19 20 21 22 23 23 23 24 24 24 25 25 26 26 27 27 27 27 27 28 28 29 28 28 27 26 25 24 24 23 23 24 25 28 31 33 34 36 37 37 36 37 40 40 39 39 40 42 44 44 42 42 40 40 43
15 15 15 15 14 14 13 12 12 12 12 12 11 11 11 10 8 9 10 11 12 12 11 12 12 13 14 15 16 17 17 18 19 20 21 22 22 22 23 24 25 25 26 27 27 28 28 28 28 28 29 29 30 30 30 29 27 26 25 23 22 22 22 24 26 28 31 32 34 34 33 34 37 37 35 35 38 41 43 43 42 41 40 39 39
16 16 16 15 15 14 13 13 12 12 12 11 11 11 10 8 8 9 10 11 11 10 10 11 11 12 13 13 14 15 16 17 18 19 19 20 21 21 22 23 24 24 26 27 28 28 29 29 29 30 30 30 31 31 32 31 30 29 27 26 24 23 23 23 24 25 27 28 30 31 30 31 32 33 33 33 35 38 39 40 40 39 39 38 36
18 17 17 16 15 15 14 13 12 12 12 11 11 10 9 8 8 9 9 9 9 9 9 10 10 11 12 13 14 15 15 16 17 18 18 19 19 20 20 21 22 23 24 26 27 28 29 29 30 30 31 31 31 32 32 32 32 31 29 28 27 25 25 26 27 27 27 27 27 29 29 29 29 29 31 31 32 33 33 34 35 36 38 38 36
19 18 17 17 16 15 14 13 12 12 11 11 10 10 9 8 8 9 9 8 8 8 9 9 10 11 12 13 13 14 15 16 17 17 18 18 18 19 19 20 21 22 23 24 25 27 28 29 29 30 30 31 31 31 32 32 32 31 30 29 28 27 26 26 26 27 27 26 26 26 26 26 25 26 28 29 30 31 32 33 33 34 38 39 39
19 19 18 18 16 15 14 13 13 12 11 11 10 9 8 8 8 8 8 8 7 7 8 8 9 10 11 12 13 14 15 16 17 17 17 18 18 19 19 20 21 21 22 23 24 25 27 28 29 29 29 30 30 31 31 32 32 33 33 32 31 29 28 27 26 25 25 24 24 24 24 23 23 24 26 28 30 31 33 35 35 35 37 39 40
20 19 19 18 17 16 15 14 13 12 12 11 10 9 8 8 7 7 7 6 6 6 7 8 9 10 11 12 13 15 16 16 17 18 18 19 19 19 19 20 20 20 21 22 23 24 25 26 27 28 28 29 30 30 31 32 33 34 35 35 34 34 33 33 31 28 25 23 23 22 23 23 24 25 27 29 30 31 32 33 33 33 34 35 37
21 20 19 18 17 16 15 14 13 13 12 11 10 9 8 7 7 6 6 5 6 6 7 8 9 10 11 12 14 15 16 17 18 18 19 19 19 20 20 20 20 21 22 22 23 23 23 24 24 26 27 28 29 30 31 32 33 34 36 37 37 37 37 36 35 34 31 29 27 26 25 25 26 27 28 29 30 30 30 30 29 30 31 32 33
21 21 20 19 17 16 15 14 14 13 13 12 11 9 8 7 6 5 5 5 5 6 7 8 9 10 11 13 14 15 16 16 17 18 18 19 19 20 21 21 22 23 24 25 25 24 24 24 24 25 26 27 28 29 30 32 33 34 35 36 37 38 37 36 34 34 34 33 32 31 30 29 29 28 29 30 30 30 30 30 29 28 28 30 30
22 21 20 19 18 17 16 15 14 14 13 12 11 9 8 7 5 4 4 4 5 6 7 8 9 10 12 13 13 14 15 15 16 17 18 19 20 21 22 23 24 24 25 25 26 26 26 26 26 26 27 28 28 29 30 31 31 32 33 34 34 35 35 35 34 33 33 33 33 33 33 32 31 31 31 31 32 32 32 32 31 29 26 26 28
22 21 20 19 18 17 16 16 15 15 14 12 11 9 8 6 4 3 3 4 5 6 7 8 9 10 11 12 13 13 14 14 15 17 18 19 20 21 22 23 24 25 25 25 25 26 27 27 27 27 28 28 28 29 29 30 30 31 31 31 31 31 32 33 34 34 34 34 34 35 35 35 35 34 34 34 34 34 34 33 32 30 26 23 23
23 21 20 19 18 18 17 16 16 15 14 13 11 9 7 6 4 3 2 3 4 5 7 8 9 10 11 11 12 12 13 14 15 16 17 19 20 21 22 22 23 24 25 25 26 26 27 27 27 28 28 28 28 28 28 28 29 29 30 30 30 30 31 31 32 33 34 36 36 36 37 37 37 37 37 37 36 36 36 35 33 32 29 25 22
23 22 21 20 19 18 18 17 16 15 14 13 11 9 7 5 4 2 2 3 4 5 6 7 8 9 9 10 10 11 12 13 14 15 17 18 18 19 20 21 22 22 23 24 25 26 27 27 28 28 28 27 27 27 27 27 28 28 29 29 30 30 31 31 32 34 35 36 37 38 38 38 38 38 37 37 37 36 35 33 33 33 31 28 26
23 22 21 20 19 19 18 18 17 15 14 13 11 9 7 5 3 1 1 2 3 5 5 6 7 8 8 8 9 10 11 13 14 15 16 17 17 18 18 19 20 21 22 23 24 25 26 27 27 27 27 27 27 27 26 26 27 27 27 28 29 30 31 32 33 34 35 36 37 37 38 37 37 37 37 36 36 35 35 33 32 33 32 31 29
23 22 22 21 20 19 19 18 17 15 14 13 11 8 6 4 3 1 1 2 3 4 5 6 7 8 8 9 10 11 12 12 14 15 15 16 17 18 18 19 20 21 22 22 23 24 24 25 26 26 27 27 28 28 28 27 26 26 26 27 29 30 32 33 35 35 36 37 37 37 37 37 36 36 36 35 35 36 37 37 36 35 35 35 34
23 23 22 21 20 20 19 18 17 15 14 12 11 8 6 4 2 0 1 2 3 4 5 6 7 7 8 9 10 11 13 14 14 15 16 17 18 19 20 20 21 22 23 23 24 24 25 26 26 27 27 26 26 27 27 27 27 26 27 28 29 30 32 33 34 35 36 36 36 36 36 36 36 36 36 36 36 36 37 38 38 38 37 37 37
24 23 22 22 21 20 19 18 16 15 14 13 11 8 6 4 2 0 2 3 4 5 6 7 8 8 8 9 9 10 12 14 16 17 18 19 20 20 22 23 24 26 27 27 27 27 28 28 28 27 27 26 25 25 25 26 27 27 28 29 29 30 31 32 33 34 35 36 37 37 37 37 37 38 38 37 36 36 37 38 38 38 38 38 38
25 24 23 22 22 21 19 18 16 15 14 13 10 8 6 4 2 1 2 4 5 6 7 8 9 10 11 11 11 11 12 14 16 18 19 21 22 24 25 27 28 29 30 30 30 30 30 30 29 29 29 29 29 29 29 29 29 29 30 31 32 32 33 34 35 36 36 37 37 38 39 39 39 39 39 38 37 36 37 37 38 37 37 37 38
26 25 24 23 22 21 19 17 16 15 14 12 10 8 6 4 3 3 3 4 5 7 8 9 9 10 11 13 14 15 15 16 17 18 20 21 23 24 26 27 28 29 30 30 31 31 32 31 31 31 32 32 32 33 33 33 33 33 33 33 34 35 36 36 37 37 37 38 38 39 40 40 40 40 41 40 39 37 36 36 37 37 37 37 37
25 25 24 23 22 21 19 17 16 15 14 12 10 8 6 5 4 4 4 5 6 8 8 9 10 11 12 13 13 15 16 18 19 20 21 23 24 24 25 26 27 28 29 30 31 31 32 32 32 32 32 33 33 34 35 35 36 36 36 36 35 36 37 37 38 38 39 39 39 39 40 41 41 41 42 41 40 38 37 36 35 35 36 36 37
25 25 24 23 22 20 19 17 16 15 14 12 10 8 6 5 5 5 5 6 7 8 9 10 11 12 14 14 15 16 18 19 21 22 24 24 25 25 25 26 26 27 28 30 31 31 31 32 32 32 33 34 34 35 35 36 37 37 38 38 38 37 38 38 39 39 40 40 40 40 41 41 42 42 41 41 41 39 37 36 35 35 35 35 35
26 25 24 23 22 20 19 17 16 15 14 12 11 9 7 6 5 6 6 7 8 9 10 10 11 13 15 16 17 18 19 21 23 24 25 25 26 26 26 26 26 27 28 29 30 30 30 31 32 32 33 34 35 35 36 37 37 38 38 39 39 39 38 39 39 39 40 40 40 41 41 42 42 42 41 40 39 39 38 36 35 34 34 34 33
27 26 24 23 21 20 18 17 16 15 14 13 11 9 7 6 6 7 7 8 9 10 11 13 14 15 16 17 18 19 20 22 23 24 25 26 27 27 27 27 26 27 27 28 29 30 31 32 32 33 34 34 35 36 37 38 38 39 39 39 39 39 39 39 39 39 40 40 40 41 42 42 43 43 42 40 39 38 38 37 35 34 34 33 33
28 27 26 24 22 21 19 18 17 15 14 13 11 9 8 7 7 8 8 9 10 11 12 14 16 18 19 19 18 19 20 21 23 24 25 26 27 28 28 28 27 27 26 27 29 30 31 32 33 34 35 36 36 37 38 39 39 39 40 40 40 40 39 39 39 39 40 40 40 41 42 43 43 43 42 41 39 38 37 37 36 34 33 33 32
29 28 26 25 23 21 19 18 17 15 14 13 11 10 10 9 8 8 9 9 10 10 11 12 14 16 18 20 20 20 20 21 22 23 24 26 27 28 29 29 29 29 28 28 29 30 31 32 34 35 36 36 37 38 38 39 39 39 40 39 39 40 39 39 39 39 39 40 40 41 41 42 43 43 42 40 38 36 36 36 36 34 33 32 31
29 28 26 24 23 21 19 18 17 16 15 14 13 12 10 10 9 9 9 10 10 11 12 13 14 15 16 18 20 20 19 20 21 21 22 23 25 26 27 29 30 30 30 30 30 31 32 32 34 35 36 37 37 38 38 39 40 40 40 40 39 39 38 38 38 38 38 39 39 40 41 42 42 42 42 40 37 36 35 35 35 35 33 31 30
28 27 26 24 22 21 19 18 17 17 16 15 14 12 11 10 10 9 10 10 11 12 13 14 16 17 18 19 20 20 20 20 20 20 21 21 23 25 26 28 29 31 31 31 32 33 34 34 35 36 37 37 38 38 39 39 40 40 41 41 40 38 38 37 37 37 37 37 38 39 40 41 41 41 40 38 37 36 35 34 34 34 33 31 29
30 28 26 25 23 21 20 19 18 18 17 15 14 13 12 11 10 10 10 11 11 13 14 15 16 19 21 22 22 22 22 21 22 22 22 22 23 25 26 28 29 30 31 32 33 34 35 36 36 37 37 38 38 39 39 39 40 40 40 41 41 40 38 37 37 37 37 37 37 38 39 40 40 39 38 36 35 35 35 34 33 33 33 32 29
29 28 26 25 23 22 21 20 19 18 17 16 15 13 12 11 11 11 11 11 12 13 15 16 16 18 20 22 23 24 24 24 24 25 26 25 25 26 26 28 29 30 31 32 34 35 36 37 37 38 38 38 38 39 39 39 39 39 39 39 40 40 39 37 36 36 36 36 36 37 38 39 38 37 35 34 34 34 34 34 33 32 31 30 29
29 28 27 26 24 22 21 20 19 18 17 16 15 14 12 12 12 11 11 12 13 14 15 16 16 18 20 21 22 24 25 26 26 27 27 27 27 27 27 28 29 31 32 33 35 36 37 38 38 38 38 38 38 39 38 38 38 37 38 38 38 39 38 38 37 36 36 36 36 36 36 36 36 35 34 32 32 32 33 33 33 32 30 29 28
29 28 27 26 24 22 21 20 19 19 18 16 15 14 13 13 12 12 12 12 13 15 16 16 16 18 19 20 21 23 24 25 26 27 27 27 28 28 28 29 30 31 33 34 35 37 38 38 39 39 39 39 38 38 37 37 36 36 36 37 37 37 38 38 37 37 36 35 35 35 35 34 33 33 32 32 32 32 32 32 32 32 31 29 28
30 28 27 26 24 22 21 20 20 19 18 16 15 15 14 13 13 13 13 13 14 16 17 18 18 18 18 19 20 22 23 24 25 26 27 27 28 28 29 30 31 32 33 35 36 37 38 39 39 39 39 38 37 37 36 36 35 36 36 36 36 36 37 37 37 37 36 35 34 33 33 32 31 31 31 31 32 32 31 31 31 31 30 29 28
30 29 28 26 24 22 22 21 20 19 17 16 15 15 15 14 14 13 13 14 14 16 17 18 20 20 19 19 20 21 22 23 25 26 26 27 28 29 30 31 32 33 34 35 35 36 38 39 39 39 38 36 36 35 35 35 35 35 35 36 36 36 36 36 36 36 36 35 34 33 31 30 30 30 30 31 31 32 31 31 31 30 30 29 28
30 29 28 26 24 23 22 21 20 18 17 16 16 16 15 15 15 14 14 15 15 16 17 18 20 21 21 20 20 22 23 24 25 25 26 28 29 30 31 32 34 34 35 35 36 37 37 38 38 38 37 36 35 35 34 34 34 34 35 35 36 36 35 35 35 34 34 34 33 32 31 29 29 29 30 30 31 31 31 31 31 30 29 29 28
30 29 27 25 24 22 21 20 20 18 17 17 16 16 16 16 15 15 15 16 16 17 17 18 19 20 21 21 22 23 24 24 25 26 27 28 29 31 32 34 35 35 35 36 36 37 37 37 37 37 36 36 35 34 34 34 34 34 34 34 35 35 35 34 34 34 33 33 32 31 30 29 29 29 29 30 30 31 31 31 31 30 29 28 27
30 28 27 25 23 22 21 21 20 18 17 17 17 16 16 16 16 16 16 16 17 18 18 18 19 20 21 22 23 24 24 25 26 26 27 29 30 32 33 35 35 35 36 36 36 36 36 36 36 36 36 36 35 34 34 34 34 34 34 34 35 35 34 34 34 33 32 32 32 31 30 29 29 29 29 30 31 31 31 31 30 30 29 28 27
29 28 26 24 23 22 21 21 20 18 17 17 17 17 17 17 16 16 17 17 18 18 18 18 19 20 22 23 24 25 25 26 27 27 29 30 32 33 35 35 36 36 37 36 35 35 35 35 35 35 35 35 35 34 34 34 34 34 34 34 35 35 35 34 33 33 32 31 31 30 30 29 29 29 29 30 30 31 31 30 30 29 29 27 26
29 27 26 24 23 22 21 20 20 19 18 18 18 17 17 17 17 17 17 18 19 18 18 18 19 20 22 23 24 25 26 27 27 28 30 31 33 34 35 35 36 37 37 36 35 35 34 34 34 34 34 34 34 34 34 34 34 34 35 35 34 35 34 34 33 32 31 31 30 30 30 29 29 29 29 29 29 30 30 30 30 29 28 27 26
28 27 25 23 22 22 21 21 20 19 18 18 18 18 18 18 18 17 18 19 19 18 17 18 19 21 23 24 25 26 26 27 28 30 31 33 34 34 35 36 36 36 36 36 35 35 34 33 33 33 33 33 34 34 34 35 35 35 35 35 34 34 33 33 32 32 31 31 30 29 29 29 29 28 28 28 28 29 29 29 29 29 28 27 26
28 26 25 23 22 22 22 21 20 19 19 19 19 19 18 18 18 18 18 19 19 18 17 18 19 21 23 24 25 26 27 28 29 31 32 33 34 35 36 36 36 36 36 35 34 33 33 33 33 33 33 33 34 34 34 35 35 35 35 34 34 33 33 32 32 31 30 30 29 29 28 29 28 28 27 27 27 28 28 28 28 28 27 27 26
Wind_Direction
83 80 77 77 75 74 73 71 69 66 64 63 60 59 57 53 50 47 43 42 40 39 36 34 33 32 32 33 35 35 33 32 34 36 35 31 28 26 24 23 22 22 22 21 20 18 15 13 12 11 9 5 5 6 5 3 359 357 356 355 358 355 348 342 327 326 340 348 345 348 352 350 352 355 350 348 352 352 351 352 353 354 355 354 352
89 84 82 83 80 79 77 75 72 68 67 66 64 63 59 54 52 48 45 43 41 39 37 35 35 35 35 37 38 36 33 34 39 40 37 32 28 26 25 25 25 25 24 23 23 21 18 16 15 14 11 9 9 8 6 5 1 359 1 359 358 359 352 345 336 329 335 347 351 350 353 353 352 354 351 347 348 349 349 352 355 356 357 356 354
93 89 88 86 83 82 81 78 75 73 73 72 68 65 59 55 53 50 47 45 43 41 39 37 37 37 38 40 40 38 34 36 42 42 38 33 29 27 26 27 27 26 25 25 24 24 22 19 17 16 15 13 13 12 8 6 3 0 4 4 359 360 357 349 343 335 334 342 349 349 350 351 351 351 350 346 345 347 348 351 355 356 357 357 356
97 94 91 88 88 88 85 82 80 80 79 76 72 66 61 56 53 51 50 46 44 43 41 40 40 39 40 42 42 40 36 38 44 44 40 35 31 29 28 29 29 27 26 26 25 25 24 23 20 18 17 16 15 14 11 7 5 3 4 5 0 358 358 353 347 341 336 339 346 349 348 348 348 349 348 345 345 346 348 350 353 355 356 356 355
102 99 95 94 96 94 91 88 87 87 83 79 75 70 64 59 55 53 52 49 46 45 43 43 42 41 42 43 44 41 37 40 47 47 42 37 33 30 29 29 29 28 27 26 25 25 23 22 20 17 15 15 14 11 9 6 3 3 2 1 359 356 354 352 348 345 340 338 342 347 348 347 348 349 349 346 345 348 350 350 351 352 353 354 354
108 105 102 104 105 100 97 96 95 92 87 81 76 72 67 62 59 57 54 51 48 46 46 45 44 43 42 43 44 42 39 40 48 49 44 40 36 31 29 28 27 26 25 24 22 21 21 19 18 16 13 12 11 7 4 2 1 0 359 357 355 352 351 350 347 345 343 341 342 345 348 348 347 348 350 347 346 348 349 349 352 352 349 350 351
115 113 113 115 112 106 104 103 101 96 91 85 78 74 71 67 63 61 57 53 50 48 47 46 45 45 43 43 43 43 40 40 46 50 45 39 36 31 28 26 25 23 22 21 20 18 17 16 15 14 12 10 8 4 359 358 358 358 356 353 350 349 348 348 346 345 344 344 345 345 346 348 347 346 348 348 347 350 348 345 347 350 347 346 346
122 122 124 123 117 112 110 108 105 101 94 87 81 76 74 71 67 63 59 56 52 49 48 46 45 45 44 43 43 41 40 39 43 47 45 38 32 29 27 25 24 23 21 20 19 17 16 15 14 13 12 10 7 3 358 355 355 356 355 351 348 346 346 345 345 344 344 344 346 346 345 346 347 346 346 349 348 349 349 343 339 340 341 342 345
131 131 131 128 122 117 114 112 109 103 95 89 85 82 80 76 71 66 62 58 55 52 50 47 44 44 45 44 42 40 38 37 38 41 42 37 30 26 24 22 23 23 23 22 19 17 16 15 15 14 13 12 9 6 1 356 354 355 354 350 346 344 344 344 344 344 344 344 346 346 345 345 347 346 346 348 346 343 342 339 334 334 336 339 344
138 138 137 132 125 120 118 117 112 104 97 92 90 88 85 81 76 72 68 62 59 56 53 49 46 45 45 44 43 40 36 35 35 36 37 34 28 25 22 21 21 21 22 23 22 19 17 15 15 15 14 14 13 10 7 1 358 357 354 351 347 344 343 343 345 345 344 344 345 346 344 343 345 346 345 345 343 339 337 335 333 335 337 338 343
143 143 140 134 128 124 123 121 114 107 101 98 96 93 90 86 81 77 73 67 64 60 55 51 48 46 46 45 43 40 36 34 33 32 33 32 26 23 20 19 19 20 20 21 21 20 18 15 14 13 13 13 13 13 10 5 3 2 359 355 349 345 344 343 344 346 345 343 344 345 343 341 343 347 346 342 340 337 335 335 336 338 339 338 338
148 146 141 135 131 129 128 125 118 112 108 103 101 99 93 90 86 80 76 71 66 63 58 53 50 47 46 45 43 41 36 33 32 30 31 30 25 21 18 17 17 17 18 19 19 18 17 16 14 11 11 11 11 11 11 9 9 8 5 1 355 349 347 346 345 345 346 344 343 345 345 341 343 347 346 340 337 335 335 338 340 339 339 338 334
151 148 143 138 136 135 133 129 123 117 113 110 108 106 99 95 93 86 79 73 69 66 61 56 52 48 47 45 43 41 36 32 31 29 29 29 26 20 16 15 15 14 15 15 15 15 14 13 13 11 10 9 8 9 10 9 11 12 9 6 2 356 352 352 349 346 346 344 342 345 346 345 345 347 346 340 337 336 337 340 342 340 338 338 336
152 148 145 142 140 140 137 133 128 121 119 118 114 109 105 103 100 90 80 75 71 68 64 59 54 49 47 45 43 40 37 33 30 29 28 27 26 20 15 14 13 12 12 12 12 11 10 9 9 9 9 7 6 6 7 7 8 10 10 7 6 2 358 358 355 351 350 348 345 346 349 350 348 347 347 344 340 339 339 340 341 340 338 339 341
153 150 148 146 144 145 141 136 132 128 125 124 119 115 116 113 105 94 84 77 72 68 64 58 54 49 44 42 40 38 36 34 30 28 27 27 25 21 17 15 12 11 12 11 9 8 8 7 7 7 6 6 5 4 3 3 3 5 8 7 6 5 4 3 1 357 356 355 352 351 353 354 352 348 347 346 342 341 341 341 341 339 338 342 346
154 152 151 150 148 148 145 140 137 134 130 128 125 123 124 117 107 98 89 81 73 67 62 54 49 46 41 36 35 33 33 32 29 27 26 26 25 21 18 16 14 12 11 11 10 7 6 6 5 5 4 3 3 2 1 360 360 1 4 5 5 6 7 6 4 1 359 358 357 356 356 354 351 349 349 348 346 345 345 346 347 345 343 345 346
155 155 154 153 152 151 148 144 140 139 137 134 133 131 127 120 111 102 93 83 73 64 58 51 45 41 36 32 30 29 28 27 25 24 22 22 22 20 17 16 14 14 12 11 11 9 6 4 3 2 2 0 360 360 358 357 357 358 359 1 3 5 7 8 8 6 4 1 359 358 357 354 352 353 353 354 354 353 352 352 352 350 348 347 344
157 158 156 155 155 154 151 148 145 145 144 140 141 139 133 125 116 105 94 82 73 63 54 47 40 35 30 26 25 24 23 21 19 19 17 16 16 16 15 13 12 13 15 14 13 11 7 5 2 360 359 358 358 357 355 355 356 356 356 356 359 2 3 4 4 6 7 5 3 2 0 358 358 358 359 1 1 1 359 357 355 352 350 347 342
159 160 158 157 158 156 153 152 150 149 149 146 146 145 141 133 123 110 97 82 70 59 50 41 33 28 24 21 20 19 17 15 13 12 12 11 10 10 10 11 10 12 14 16 16 14 9 5 2 360 358 357 356 355 354 354 355 355 353 353 356 359 1 0 359 0 2 4 5 5 5 4 4 3 4 5 6 6 5 2 360 357 351 348 346
161 161 160 160 160 159 157 156 155 155 154 153 153 152 147 139 127 113 97 79 64 50 43 34 25 20 18 17 16 14 11 10 8 6 5 5 5 5 5 7 9 10 11 12 12 11 9 6 2 360 358 357 355 354 353 354 354 353 353 353 354 356 357 357 357 358 359 2 3 3 5 6 7 6 6 7 8 8 9 8 7 4 356 350 349
163 163 162 162 163 162 160 160 160 160 158 157 157 156 151 142 127 110 86 64 51 39 32 27 20 15 12 11 10 9 6 4 2 1 360 360 1 3 3 3 6 8 8 8 6 5 5 4 1 359 357 357 355 353 353 354 353 352 352 353 353 353 352 353 355 357 358 360 1 2 3 4 6 7 7 8 8 9 10 11 11 10 5 356 350
165 164 164 166 166 165 164 164 165 164 163 162 163 160 155 144 125 103 76 47 35 26 19 16 13 10 8 5 2 1 0 359 356 356 357 357 359 0 1 2 2 3 4 4 3 2 0 360 359 357 356 355 353 352 352 352 351 351 351 352 351 351 351 351 353 355 356 358 0 1 2 2 4 5 6 7 7 8 10 12 12 13 13 8 358
167 165 166 169 169 167 167 168 168 167 167 167 168 166 159 147 131 106 68 37 25 18 11 6 3 1 360 357 353 352 353 353 353 353 354 356 358 358 358 359 359 360 0 0 360 359 358 357 357 356 354 353 352 352 352 351 351 350 350 350 350 351 352 352 352 354 356 357 358 360 1 2 2 4 4 5 5 6 8 9 10 12 14 15 12
168 168 170 172 171 171 170 171 171 170 170 172 173 171 164 152 138 111 55 21 14 11 4 358 355 354 351 347 345 345 346 348 349 350 351 353 356 355 354 355 356 357 358 357 357 356 355 355 355 354 352 351 350 351 352 352 352 351 349 350 350 351 351 352 353 354 355 356 357 358 359 0 1 2 3 3 2 3 4 6 8 10 12 15 16
169 170 173 174 174 174 174 174 173 172 173 178 179 174 167 159 149 126 38 1 2 2 355 347 345 345 343 340 339 340 343 344 345 347 349 350 351 352 351 351 353 355 356 356 355 355 354 353 352 351 350 349 349 350 352 352 352 352 350 350 350 351 352 353 354 355 355 356 356 356 357 358 359 0 1 1 360 359 0 3 6 8 10 12 16
172 174 175 176 176 177 177 176 175 175 179 182 182 178 172 169 165 153 4 352 355 354 346 339 336 335 335 335 335 337 340 342 342 343 345 348 348 347 348 349 351 353 355 355 354 353 352 351 350 350 350 350 349 349 350 352 352 352 352 352 352 353 353 354 354 354 355 355 355 355 355 356 356 357 359 359 359 359 359 360 2 5 7 9 12
174 177 178 178 179 179 180 178 176 179 183 185 185 183 179 178 176 159 345 346 349 345 337 333 329 329 330 330 331 335 337 339 340 341 342 345 346 345 345 347 350 352 353 355 354 352 352 352 350 350 350 350 350 348 348 349 351 352 353 353 354 354 354 354 354 353 353 353 353 353 354 354 355 356 357 359 360 360 359 359 1 3 5 7 8
177 179 180 180 181 181 182 180 179 183 188 190 191 189 185 188 196 248 325 333 337 333 328 327 326 325 325 326 328 333 336 337 338 340 342 343 344 345 345 347 350 351 352 353 352 352 352 351 350 349 349 350 350 349 349 350 351 352 353 354 354 354 353 352 352 353 353 352 352 353 353 354 355 355 356 358 359 359 359 358 360 1 2 4 6
179 182 182 182 183 183 184 183 183 189 193 193 194 192 188 193 209 253 296 310 318 319 320 322 323 322 324 327 332 336 338 340 340 341 343 343 344 346 347 348 349 350 349 349 349 350 350 350 349 348 349 350 350 351 351 352 352 353 354 354 354 353 353 352 352 352 353 353 352 353 353 354 355 354 354 355 357 358 358 357 357 359 1 3 5
182 183 184 184 184 184 185 185 186 191 195 195 197 197 196 207 230 259 283 300 308 312 315 316 316 319 322 328 333 336 338 340 341 341 343 345 345 346 347 347 346 346 345 345 346 347 347 347 348 348 348 349 350 350 351 351 351 352 353 354 353 352 352 351 351 351 352 352 353 353 353 353 353 353 353 353 354 355 357 356 356 357 359 1 4
185 185 185 187 187 187 187 188 191 196 199 202 203 203 205 218 236 256 278 297 305 306 307 308 311 316 320 325 331 335 337 339 341 342 344 345 345 345 346 345 344 343 342 342 344 345 345 345 347 347 347 348 348 348 349 349 348 348 350 351 352 352 350 350 350 349 350 351 351 352 352 352 352 353 353 352 351 352 354 355 355 356 357 359 2
186 187 189 190 191 191 192 193 197 201 203 205 206 206 211 223 241 263 279 293 301 301 303 309 315 319 322 326 331 335 338 339 340 342 344 343 343 343 343 343 343 342 341 341 342 343 343 343 344 345 345 346 347 346 346 346 346 346 347 347 349 350 349 348 348 347 348 349 350 351 351 351 351 352 352 351 350 351 352 354 354 355 356 357 360
187 189 191 192 193 194 195 196 200 204 206 208 209 209 216 228 245 264 274 281 289 295 303 312 318 321 324 328 331 335 338 339 340 341 341 340 339 340 341 342 342 342 341 340 339 341 342 342 343 344 344 344 344 344 344 344 343 344 344 344 345 347 347 346 346 346 346 347 348 349 350 350 350 351 352 352 351 350 351 353 354 355 355 356 358
188 191 194 195 196 197 197 200 204 207 209 212 212 213 221 233 249 264 275 283 293 305 316 321 323 324 324 326 330 334 336 337 337 338 337 337 336 337 338 341 341 340 340 340 338 339 341 342 342 343 343 343 343 342 342 342 341 341 342 342 343 344 344 344 345 344 345 346 347 348 348 349 349 350 351 353 352 351 352 353 355 356 356 354 355
191 194 196 197 198 199 201 204 207 210 213 215 216 220 227 238 252 267 281 292 302 313 319 320 320 321 321 323 328 332 334 334 334 334 334 334 334 334 335 337 339 340 341 340 339 339 340 341 341 342 342 341 341 340 340 340 339 339 339 340 341 342 343 343 343 344 344 345 346 347 348 348 349 349 350 352 353 352 353 354 355 357 357 355 354
193 196 199 200 200 201 203 206 210 213 216 219 221 225 230 238 251 263 276 287 297 306 310 310 312 314 314 317 323 329 332 333 332 333 333 332 331 332 333 334 337 339 341 341 339 339 340 340 340 340 340 340 339 338 338 337 337 337 337 338 339 340 341 342 342 342 343 344 345 346 346 347 348 348 349 351 352 353 354 353 354 356 357 356 354
196 199 202 203 202 202 205 209 213 216 219 222 224 227 232 240 251 262 275 287 297 306 309 309 310 310 309 312 318 324 330 332 332 331 331 330 329 330 332 334 335 337 338 340 339 338 339 340 339 338 338 338 337 337 336 336 336 336 335 336 337 338 339 340 340 340 341 342 344 345 345 345 346 347 348 349 351 353 354 354 353 354 356 356 355
199 201 204 206 206 205 208 212 217 220 223 224 227 230 234 242 253 265 278 289 299 306 309 312 313 312 312 315 319 324 330 334 332 330 330 330 330 331 333 334 334 334 336 338 338 336 337 338 338 337 337 337 336 336 336 335 335 335 334 334 335 336 337 337 338 338 339 340 342 343 343 343 345 346 347 347 349 351 353 354 354 353 353 354 356
200 202 205 207 208 208 211 215 219 222 225 227 229 233 238 246 257 269 279 290 300 305 308 312 314 314 315 318 322 326 332 335 333 332 332 333 334 334 334 334 333 333 334 335 336 335 335 336 337 336 336 336 335 335 334 334 334 334 334 334 335 337 338 338 338 337 338 339 341 341 341 341 343 345 346 347 348 349 350 353 354 353 352 352 354
202 204 207 209 210 210 213 217 220 224 227 230 234 238 243 250 260 271 281 291 299 303 307 311 314 314 315 319 323 327 332 334 334 333 334 335 335 335 335 333 332 332 334 334 334 334 334 334 335 335 335 335 335 334 333 333 333 334 335 335 336 338 339 339 339 338 338 338 339 339 340 340 342 344 346 347 348 348 349 351 352 353 352 352 352
204 207 210 211 212 213 215 218 223 226 229 232 237 242 248 255 264 273 282 290 297 301 305 310 314 314 316 319 323 325 328 330 331 332 333 334 334 334 334 333 331 332 333 333 333 333 333 333 334 334 334 334 334 333 333 333 333 334 335 336 336 337 339 339 339 339 339 339 340 340 341 342 342 344 346 347 348 348 349 349 350 351 352 352 351
207 209 212 214 214 215 217 222 225 228 231 235 240 246 252 258 266 274 282 290 296 301 305 310 313 314 317 320 321 322 324 326 327 329 331 331 332 332 332 332 331 331 332 333 332 332 332 332 333 333 333 333 333 332 333 333 333 333 334 335 336 337 338 338 339 339 339 340 341 342 342 343 343 344 346 347 347 348 349 349 349 350 351 351 351
208 210 213 216 216 217 220 224 228 231 234 238 243 250 255 261 267 274 282 289 295 300 305 310 312 314 318 320 319 319 321 323 325 327 329 330 330 330 330 330 330 331 331 332 332 331 331 331 332 332 332 333 332 332 333 333 333 333 333 334 335 336 337 337 338 338 339 340 341 343 343 344 344 345 345 346 347 349 350 350 350 349 349 350 351
209 211 214 216 217 218 221 226 230 233 236 240 246 252 258 263 268 274 281 288 294 299 305 309 312 315 319 321 319 318 321 323 324 327 328 328 328 329 329 328 329 330 331 332 332 331 331 331 331 332 333 333 333 332 332 332 332 332 332 333 334 335 336 336 337 337 338 339 341 343 344 345 345 345 345 346 347 348 350 351 351 350 349 349 349
210 212 215 217 218 220 224 228 232 234 238 243 248 254 259 264 270 275 281 287 293 298 303 308 312 315 318 320 320 319 321 323 325 327 327 327 327 327 327 328 329 330 331 332 332 332 331 331 331 332 333 333 333 332 332 332 332 332 332 333 333 335 336 336 337 337 338 339 340 343 345 345 345 345 345 346 347 348 349 351 351 351 350 349 348
211 213 216 218 220 222 226 231 233 236 240 245 249 254 260 265 271 276 281 287 292 297 301 307 312 315 318 319 320 320 322 323 325 326 326 326 326 327 327 328 329 330 332 333 333 332 333 333 333 333 333 334 334 334 333 333 333 333 333 333 334 335 336 336 337 338 338 338 340 342 344 345 345 345 345 345 346 347 349 350 351 350 350 349 348
211 214 216 218 220 224 228 232 235 238 242 246 251 255 259 264 270 276 282 287 291 295 302 308 313 316 317 318 318 320 322 323 324 325 325 325 326 327 327 328 329 331 332 333 333 334 334 334 334 333 334 334 334 335 335 334 334 334 335 335 335 335 336 336 337 337 337 338 339 341 343 344 345 345 345 345 345 346 348 349 350 350 350 349 348
212 214 217 219 222 225 229 233 237 240 243 247 252 256 260 264 269 274 280 285 289 294 302 309 314 316 316 316 317 319 321 322 324 324 325 326 327 327 328 329 330 331 332 333 335 335 335 335 335 334 334 335 335 335 335 335 335 335 335 335 335 335 336 336 336 336 337 337 339 340 342 343 344 344 344 344 344 345 346 347 349 349 349 349 349
213 215 217 220 223 227 231 234 237 240 244 248 253 257 260 265 269 273 278 283 287 294 302 309 314 315 315 315 317 319 320 321 323 324 325 326 327 327 328 329 330 331 333 334 336 337 336 336 336 336 335 335 335 335 335 335 335 335 335 335 335 335 335 335 335 335 335 336 338 339 340 341 342 343 343 343 343 344 345 346 347 348 348 349 349
214 215 218 221 223 227 231 234 237 241 245 249 253 257 260 264 269 274 279 283 288 295 304 310 313 314 314 315 317 318 319 321 322 323 325 326 327 327 328 330 331 332 334 335 336 337 338 337 337 337 336 335 335 335 335 335 335 335 335 334 334 334 334 334 334 334 334 335 336 337 338 338 339 341 341 341 341 342 344 345 346 347 347 347 348
215 216 218 221 224 227 232 235 238 242 245 249 253 257 261 265 270 275 279 285 291 298 306 310 312 312 313 315 316 318 319 320 322 323 325 326 327 328 329 331 332 333 334 335 337 338 339 338 337 336 336 335 335 335 335 334 334 334 334 333 333 333 333 333 333 332 332 331 332 334 334 335 336 337 339 339 339 341 342 343 344 345 345 346 346